Weather in Lozova

Ukraine / Kharkiv Region     50°08′42″N   35°34′01″E
temp.,
°C
wind,
m/s
gust,
m/s
humid.,
%
clouds,
%
prec.,
mm/h
press.,
hPa
HPBL,
m
28 october, thu
thu2800:00+5w348413 0.0 102456
03:00+4w348952 0.0 102453
06:00+4wsw3588100 0.0 1023115
09:00+6sw498184 0.0 1023291
12:00+9wsw61269100 0.0 1022605
15:00+10w61171100 0.0 1020697
18:00+9wnw51084100 0.1 1021496
21:00+9wnw498998 0.1 1022352
29 october, fri
fri2900:00+7wnw37979 0.0 1023167
03:00+5nnw379783 0.0 1025152
06:00+4n36925 0.0 1026102
09:00+6nne25845 0.0 1028148
12:00+10ne33630 0.0 1028568
15:00+12nne22555 0.0 1028808
18:00+9ne22705 0.0 102911
21:00+7e22765 0.0 103014
30 october, sat
sat3000:00+6se22820 0.0 103123
03:00+5sse22880 0.0 103214
06:00+5sse22895 0.0 103217
09:00+6sse23812 0.0 103390
12:00+12sse34565 0.0 1033528
15:00+13sse23460 0.0 1031817
18:00+10se33590 0.0 103229
21:00+8sse33670 0.0 103237
31 october, sun
sun3100:00+7sse34720 0.0 103249
03:00+6sse33750 0.0 103240
05:00+5se33780 0.0 103235
08:00+6se36720 0.0 1032147
11:00+12se46490 0.0 1031540
14:00+14se45380 0.0 1029777
17:00+9ese34520 0.0 102951
20:00+8se37560 0.0 1029109
31 october, sun
sun3123:00+6se37630 0.0 1028112
02:00+5se36700 0.0 102798
05:00+4ese36750 0.0 102693
08:00+6ese410710 0.0 1026257
11:00+11ese68520 0.0 1024614
14:00+13ese67420 0.0 1021937
17:00+9ese47670 0.0 1021129
20:00+8se410860 0.0 1020221